This demonstration page uses our WeatherBlox Daily Observations layout. Learn more.

Left ArrowRight Arrow

Hourly Observations for December 21, 2019

Temp ( °F °C ) Dew Point ( °F °C ) Humidity (%) Winds ( mph kmh ) Pressure ( in mb ) Visibility ( mi km ) Precip ( " mm )
12:56 am 00:56 Clear 30 -1.1 22 -5.6 72 72 SW 9 15 30.28 1025 10 16 0.00 0.00
1:56 am 01:56 Clear 31 -0.6 21 -6.1 67 67 SW 13 20 30.27 1025 10 16 0.00 0.00
2:56 am 02:56 Clear 31 -0.6 21 -6.1 67 67 SW 12 19 30.27 1025 10 16 0.00 0.00
3:56 am 03:56 Clear 30 -1.1 21 -6.1 69 69 SW 10 17 30.26 1025 10 16 0.00 0.00
4:56 am 04:56 Clear 30 -1.1 21 -6.1 69 69 SW 10 17 30.25 1024 10 16 0.00 0.00
5:56 am 05:56 Clear 31 -0.6 22 -5.6 69 69 W 8 13 30.25 1025 10 16 0.00 0.00
6:56 am 06:56 Clear 27 -2.8 21 -6.1 78 78 SW 9 15 30.25 1025 10 16 0.00 0.00
7:56 am 07:56 Clear 25 -3.9 20 -6.7 81 81 SW 5 7 30.26 1025 10 16 0.00 0.00
8:56 am 08:56 Sunny 29 -1.7 22 -5.6 75 75 WSW 3 6 30.27 1025 10 16 0.00 0.00
9:56 am 09:56 Sunny 34 1.1 23 -5 64 64 SW 8 13 30.26 1025 10 16 0.00 0.00
10:56 am 10:56 Sunny 40 4.4 27 -2.8 60 60 SW 9 15 30.25 1025 10 16 0.00 0.00
11:56 am 11:56 Sunny 47 8.3 30 -1.1 52 52 SSW 12 19 30.22 1023 10 16 0.00 0.00
12:56 pm 12:56 Sunny 51 10.6 28 -2.2 41 41 SSW 13 20 30.18 1022 10 16 0.00 0.00
1:56 pm 13:56 Sunny 56 13.3 26 -3.3 32 32 SW 16 26 30.14 1021 10 16 0.00 0.00
2:56 pm 14:56 Sunny 56 13.3 26 -3.3 32 32 SSW 16 26 30.14 1021 10 16 0.00 0.00
3:56 pm 15:56 Sunny 54 12.2 29 -1.7 38 38 SSW 13 20 30.14 1021 10 16 0.00 0.00
4:56 pm 16:56 Sunny 49 9.4 27 -2.8 43 43 SSW 6 9 30.15 1021 10 16 0.00 0.00
5:56 pm 17:56 Clear 44 6.7 25 -3.9 47 47 SSW 9 15 30.16 1021 10 16 0.00 0.00
6:56 pm 18:56 Clear 42 5.6 25 -3.9 51 51 SW 10 17 30.17 1022 10 16 0.00 0.00
7:56 pm 19:56 Clear 40 4.4 25 -3.9 55 55 SW 12 19 30.18 1022 10 16 0.00 0.00
8:56 pm 20:56 Clear 40 4.4 24 -4.4 53 53 SSW 12 19 30.17 1022 10 16 0.00 0.00
9:56 pm 21:56 Clear 38 3.3 24 -4.4 57 57 SSW 12 19 30.17 1022 10 16 0.00 0.00
10:56 pm 22:56 Clear 39 3.9 24 -4.4 55 55 SW 13 20 30.15 1021 10 16 0.00 0.00
11:56 pm 23:56 Clear 36 2.2 23 -5 59 59 SSW 13 20 30.14 1021 10 16 0.00 0.00

Powered by AerisWeather